This is the latest recevied weather packets stored in our database for station/object K4GDX. If no packets are shown the sender has not sent any weather packets the latest 10 day(s).
| Time | Temp. | Humidity | Pressure | Rain* | Wind** | Luminosity | Snow |
|---|---|---|---|---|---|---|---|
| 1777044592 | 26.67° C | 62% | 1014.7 hPa | 0 mm | - | 281 W/m² | - |
| 1777044293 | 26.67° C | 63% | 1014.6 hPa | 0 mm | - | 967 W/m² | - |
| 1777043989 | 26.67° C | 63% | 1014.7 hPa | 0 mm | - | 933 W/m² | - |
| 1777043689 | 26.11° C | 63% | 1014.8 hPa | 0 mm | - | 884 W/m² | - |
| 1777043388 | 26.11° C | 64% | 1014.7 hPa | 0 mm | - | 260 W/m² | - |
| 1777043088 | 25.56° C | 63% | 1014.7 hPa | 0 mm | - | 812 W/m² | - |
| 1777042788 | 25.56° C | 63% | 1014.7 hPa | 0 mm | - | 777 W/m² | - |
| 1777042487 | 25.56° C | 63% | 1014.7 hPa | 0 mm | - | 758 W/m² | - |
| 1777042188 | 25.56° C | 63% | 1014.7 hPa | 0 mm | - | 744 W/m² | - |
| 1777041889 | 25.56° C | 64% | 1014.8 hPa | 0 mm | - | 728 W/m² | - |
| 1777041586 | 25.56° C | 65% | 1014.7 hPa | 0 mm | - | 710 W/m² | - |
| 1777041282 | 25.56° C | 65% | 1014.7 hPa | 0 mm | - | 700 W/m² | - |
| 1777040979 | 25° C | 66% | 1014.7 hPa | 0 mm | - | 684 W/m² | - |
| 1777040680 | 25° C | 65% | 1014.7 hPa | 0 mm | - | 671 W/m² | - |
| 1777040379 | 25° C | 66% | 1014.7 hPa | 0 mm | - | 657 W/m² | - |
| 1777040081 | 25° C | 66% | 1014.8 hPa | 0 mm | - | 640 W/m² | - |
| 1777039781 | 25° C | 67% | 1014.8 hPa | 0 mm | - | 629 W/m² | - |
| 1777039480 | 24.44° C | 67% | 1014.8 hPa | 0 mm | - | 608 W/m² | - |
| 1777039173 | 24.44° C | 68% | 1015 hPa | 0 mm | - | 592 W/m² | - |
| 1777038871 | 24.44° C | 69% | 1015 hPa | 0 mm | - | 571 W/m² | - |
| 1777038571 | 24.44° C | 68% | 1015.1 hPa | 0 mm | - | 561 W/m² | - |
| 1777038271 | 23.89° C | 69% | 1015.1 hPa | 0 mm | - | 540 W/m² | - |
| 1777037973 | 23.89° C | 69% | 1015.1 hPa | 0 mm | - | 519 W/m² | - |
| 1777037671 | 23.89° C | 71% | 1015.1 hPa | 0 mm | - | 501 W/m² | - |
| 1777037369 | 23.33° C | 72% | 1015.1 hPa | 0 mm | - | 490 W/m² | - |
* Rain latest hour (hover to see other rain measurements)
** Current wind speed in m/s (hover to see current wind gust speed)